User: anonymous   Login
Location: Unspecified
(0.0000°N, 0.0000°E)
Time: 06:58:17
(UTC+00:00)
Language:

KITSAT 1 - Orbit

View from above orbital plane
View from above orbital plane
View from above satellite
View from above satellite

Ground track
Ground track

The orbit data is extracted from the following two-line orbital elements,

1 22077U 92052B   17202.34554303 -.00000039 +00000-0 +89565-4 0  9995
2 22077 066.0835 255.0056 0010892 316.0858 130.9951 12.86518904171418
Epoch (UTC): 21 July 2017 08:17:34
Eccentricity: 0.0010892
inclination: 66.0835°
perigee height: 1307 km
apogee height: 1324 km
right ascension of ascending node: 255.0056°
argument of perigee: 316.0858°
revolutions per day: 12.86518904
mean anomaly at epoch: 130.9951°
orbit number at epoch: 17141

The dashed part of the orbit path shows where the satellite is in the earth's shadow,  

DLR